Time,TemperatureF,DewpointF,PressureIn,WindDirection,WindDirectionDegrees,WindSpeedMPH,WindSpeedGustMPH,Humidity,HourlyPrecipIn,Conditions,Clouds,dailyrainin,SoftwareType,DateUTC
2013-07-14 00:00:00,62.0,36.0,27.03,SE,135,3.0,4.0,37,0.00,,,0.00,Rainwise IP-100,2013-07-14 06:00:00,
2013-07-14 00:05:00,62.0,36.0,27.03,SE,135,2.0,6.0,38,0.00,,,0.00,Rainwise IP-100,2013-07-14 06:05:00,
2013-07-14 00:10:00,62.0,36.0,27.03,SE,135,2.0,5.0,38,0.00,,,0.00,Rainwise IP-100,2013-07-14 06:10:00,
2013-07-14 00:15:00,62.0,36.0,27.03,ESE,112,1.0,5.0,38,0.00,,,0.00,Rainwise IP-100,2013-07-14 06:15:00,
2013-07-14 00:20:00,61.0,36.0,27.03,SE,135,1.0,6.0,39,0.00,,,0.00,Rainwise IP-100,2013-07-14 06:20:00,
2013-07-14 00:25:00,61.0,36.0,27.03,ENE,67,5.0,10.0,39,0.00,,,0.00,Rainwise IP-100,2013-07-14 06:25:00,
2013-07-14 00:30:00,62.0,36.0,27.03,SE,135,4.0,10.0,38,0.00,,,0.00,Rainwise IP-100,2013-07-14 06:30:00,
2013-07-14 00:35:00,61.0,37.0,27.03,SE,135,4.0,6.0,40,0.00,,,0.00,Rainwise IP-100,2013-07-14 06:35:00,
2013-07-14 00:40:00,61.0,37.0,27.04,South,180,0.0,4.0,40,0.00,,,0.00,Rainwise IP-100,2013-07-14 06:40:00,
2013-07-14 00:45:00,60.0,36.0,27.04,South,180,0.0,1.0,41,0.00,,,0.00,Rainwise IP-100,2013-07-14 06:45:00,
2013-07-14 00:50:00,59.0,36.0,27.05,South,180,0.0,0.0,41,0.00,,,0.00,Rainwise IP-100,2013-07-14 06:50:00,
2013-07-14 00:55:00,60.0,37.0,27.05,ENE,67,0.0,5.0,43,0.00,,,0.00,Rainwise IP-100,2013-07-14 06:55:00,
2013-07-14 01:00:00,60.0,37.0,27.05,ENE,67,3.0,4.0,43,0.00,,,0.00,Rainwise IP-100,2013-07-14 07:00:00,
2013-07-14 01:05:00,59.0,36.0,27.05,ENE,67,0.0,4.0,42,0.00,,,0.00,Rainwise IP-100,2013-07-14 07:05:00,
2013-07-14 01:10:00,59.0,37.0,27.05,ENE,67,0.0,0.0,44,0.00,,,0.00,Rainwise IP-100,2013-07-14 07:10:00,
2013-07-14 01:15:00,58.0,38.0,27.05,ENE,67,0.0,0.0,46,0.00,,,0.00,Rainwise IP-100,2013-07-14 07:15:00,
2013-07-14 01:20:00,57.0,37.0,27.05,ENE,67,0.0,0.0,46,0.00,,,0.00,Rainwise IP-100,2013-07-14 07:20:00,
2013-07-14 01:25:00,57.0,38.0,27.05,ENE,67,0.0,0.0,49,0.00,,,0.00,Rainwise IP-100,2013-07-14 07:25:00,
2013-07-14 01:30:00,56.0,37.0,27.06,ENE,67,0.0,0.0,49,0.00,,,0.00,Rainwise IP-100,2013-07-14 07:30:00,
2013-07-14 01:35:00,56.0,38.0,27.06,ENE,67,0.0,0.0,51,0.00,,,0.00,Rainwise IP-100,2013-07-14 07:35:00,
2013-07-14 01:40:00,56.0,37.0,27.06,West,270,0.0,4.0,49,0.00,,,0.00,Rainwise IP-100,2013-07-14 07:40:00,
2013-07-14 01:45:00,56.0,38.0,27.06,West,270,0.0,0.0,51,0.00,,,0.00,Rainwise IP-100,2013-07-14 07:45:00,
2013-07-14 01:50:00,56.0,38.0,27.06,NNW,337,2.0,4.0,50,0.00,,,0.00,Rainwise IP-100,2013-07-14 07:50:00,
2013-07-14 01:55:00,56.0,38.0,27.06,ENE,67,3.0,4.0,51,0.00,,,0.00,Rainwise IP-100,2013-07-14 07:55:00,
2013-07-14 02:00:00,56.0,38.0,27.06,SSW,202,3.0,3.0,51,0.00,,,0.00,Rainwise IP-100,2013-07-14 08:00:00,
2013-07-14 02:05:00,56.0,38.0,27.06,SW,225,0.0,3.0,52,0.00,,,0.00,Rainwise IP-100,2013-07-14 08:05:00,
2013-07-14 02:10:00,55.0,38.0,27.07,SW,225,0.0,0.0,53,0.00,,,0.00,Rainwise IP-100,2013-07-14 08:10:00,
2013-07-14 02:15:00,55.0,38.0,27.07,SW,225,0.0,0.0,53,0.00,,,0.00,Rainwise IP-100,2013-07-14 08:15:00,
2013-07-14 02:20:00,54.0,38.0,27.06,SW,225,0.0,0.0,54,0.00,,,0.00,Rainwise IP-100,2013-07-14 08:20:00,
2013-07-14 02:25:00,54.0,38.0,27.06,SW,225,0.0,0.0,54,0.00,,,0.00,Rainwise IP-100,2013-07-14 08:25:00,
2013-07-14 02:30:00,54.0,39.0,27.07,SW,225,0.0,0.0,56,0.00,,,0.00,Rainwise IP-100,2013-07-14 08:30:00,
2013-07-14 02:35:00,54.0,38.0,27.07,South,180,0.0,0.0,55,0.00,,,0.00,Rainwise IP-100,2013-07-14 08:35:00,
2013-07-14 02:40:00,54.0,38.0,27.07,SSE,157,0.0,0.0,55,0.00,,,0.00,Rainwise IP-100,2013-07-14 08:40:00,
2013-07-14 02:45:00,54.0,39.0,27.07,SSE,157,0.0,0.0,56,0.00,,,0.00,Rainwise IP-100,2013-07-14 08:45:00,
2013-07-14 02:50:00,54.0,39.0,27.07,SSE,157,0.0,3.0,57,0.00,,,0.00,Rainwise IP-100,2013-07-14 08:50:00,
2013-07-14 02:55:00,54.0,39.0,27.07,SSE,157,0.0,0.0,56,0.00,,,0.00,Rainwise IP-100,2013-07-14 08:55:00,
2013-07-14 03:00:00,53.0,39.0,27.08,SSE,157,0.0,0.0,59,0.00,,,0.00,Rainwise IP-100,2013-07-14 09:00:00,
2013-07-14 03:05:00,53.0,38.0,27.08,SSE,157,0.0,0.0,58,0.00,,,0.00,Rainwise IP-100,2013-07-14 09:05:00,
2013-07-14 03:10:00,53.0,38.0,27.08,SSE,157,0.0,0.0,58,0.00,,,0.00,Rainwise IP-100,2013-07-14 09:10:00,
2013-07-14 03:15:00,52.0,39.0,27.08,SSE,157,0.0,0.0,61,0.00,,,0.00,Rainwise IP-100,2013-07-14 09:15:00,
2013-07-14 03:20:00,52.0,39.0,27.08,SSE,157,0.0,0.0,61,0.00,,,0.00,Rainwise IP-100,2013-07-14 09:20:00,
2013-07-14 03:25:00,52.0,39.0,27.08,SSE,157,0.0,0.0,61,0.00,,,0.00,Rainwise IP-100,2013-07-14 09:25:00,
2013-07-14 03:30:00,52.0,39.0,27.08,SSE,157,0.0,0.0,61,0.00,,,0.00,Rainwise IP-100,2013-07-14 09:30:00,
2013-07-14 03:35:00,52.0,39.0,27.08,SSE,157,0.0,0.0,62,0.00,,,0.00,Rainwise IP-100,2013-07-14 09:35:00,
2013-07-14 03:40:00,52.0,39.0,27.08,WSW,247,0.0,3.0,62,0.00,,,0.00,Rainwise IP-100,2013-07-14 09:40:00,
2013-07-14 03:45:00,52.0,40.0,27.08,WSW,247,0.0,1.0,63,0.00,,,0.00,Rainwise IP-100,2013-07-14 09:45:00,
2013-07-14 03:50:00,51.0,39.0,27.08,WSW,247,0.0,1.0,64,0.00,,,0.00,Rainwise IP-100,2013-07-14 09:50:00,
2013-07-14 03:55:00,51.0,40.0,27.08,WSW,247,0.0,1.0,65,0.00,,,0.00,Rainwise IP-100,2013-07-14 09:55:00,
2013-07-14 04:00:00,51.0,40.0,27.09,WSW,247,0.0,0.0,65,0.00,,,0.00,Rainwise IP-100,2013-07-14 10:00:00,
2013-07-14 04:05:00,51.0,40.0,27.09,WSW,247,0.0,0.0,65,0.00,,,0.00,Rainwise IP-100,2013-07-14 10:05:00,
2013-07-14 04:10:00,51.0,40.0,27.09,WSW,247,0.0,0.0,65,0.00,,,0.00,Rainwise IP-100,2013-07-14 10:10:00,
2013-07-14 04:15:00,50.0,39.0,27.09,WSW,247,0.0,0.0,67,0.00,,,0.00,Rainwise IP-100,2013-07-14 10:15:00,
2013-07-14 04:20:00,50.0,39.0,27.09,WSW,247,0.0,0.0,67,0.00,,,0.00,Rainwise IP-100,2013-07-14 10:20:00,
2013-07-14 04:25:00,50.0,39.0,27.09,WSW,247,0.0,0.0,68,0.00,,,0.00,Rainwise IP-100,2013-07-14 10:25:00,
2013-07-14 04:30:00,50.0,39.0,27.09,WSW,247,0.0,3.0,67,0.00,,,0.00,Rainwise IP-100,2013-07-14 10:30:00,
2013-07-14 04:35:00,50.0,39.0,27.09,NW,315,0.0,4.0,67,0.00,,,0.00,Rainwise IP-100,2013-07-14 10:35:00,
2013-07-14 04:40:00,51.0,41.0,27.09,South,180,1.0,3.0,68,0.00,,,0.00,Rainwise IP-100,2013-07-14 10:40:00,
2013-07-14 04:45:00,51.0,40.0,27.09,South,180,0.0,2.0,67,0.00,,,0.00,Rainwise IP-100,2013-07-14 10:45:00,
2013-07-14 04:50:00,51.0,41.0,27.09,SSE,157,1.0,4.0,68,0.00,,,0.00,Rainwise IP-100,2013-07-14 10:50:00,
2013-07-14 04:55:00,50.0,39.0,27.09,SSE,157,0.0,3.0,67,0.00,,,0.00,Rainwise IP-100,2013-07-14 10:55:00,
2013-07-14 05:00:00,50.0,39.0,27.09,West,270,3.0,3.0,67,0.00,,,0.00,Rainwise IP-100,2013-07-14 11:00:00,
2013-07-14 05:05:00,50.0,39.0,27.09,West,270,0.0,3.0,67,0.00,,,0.00,Rainwise IP-100,2013-07-14 11:05:00,
2013-07-14 05:10:00,50.0,39.0,27.09,West,270,1.0,3.0,68,0.00,,,0.00,Rainwise IP-100,2013-07-14 11:10:00,
2013-07-14 05:15:00,50.0,39.0,27.09,West,270,0.0,2.0,68,0.00,,,0.00,Rainwise IP-100,2013-07-14 11:15:00,
2013-07-14 05:20:00,50.0,39.0,27.10,West,270,0.0,0.0,68,0.00,,,0.00,Rainwise IP-100,2013-07-14 11:20:00,
2013-07-14 05:25:00,50.0,40.0,27.10,ENE,67,0.0,3.0,70,0.00,,,0.00,Rainwise IP-100,2013-07-14 11:25:00,
2013-07-14 05:30:00,50.0,41.0,27.09,ENE,67,1.0,3.0,72,0.00,,,0.00,Rainwise IP-100,2013-07-14 11:30:00,
2013-07-14 05:35:00,49.0,40.0,27.09,ENE,67,0.0,1.0,72,0.00,,,0.00,Rainwise IP-100,2013-07-14 11:35:00,
2013-07-14 05:40:00,49.0,40.0,27.10,ENE,67,0.0,0.0,70,0.00,,,0.00,Rainwise IP-100,2013-07-14 11:40:00,
2013-07-14 05:45:00,49.0,40.0,27.10,ENE,67,0.0,0.0,71,0.00,,,0.00,Rainwise IP-100,2013-07-14 11:45:00,
2013-07-14 05:50:00,49.0,41.0,27.10,ENE,67,0.0,0.0,73,0.00,,,0.00,Rainwise IP-100,2013-07-14 11:50:00,
2013-07-14 05:55:00,49.0,40.0,27.10,SE,135,0.0,2.0,72,0.00,,,0.00,Rainwise IP-100,2013-07-14 11:55:00,
2013-07-14 06:00:00,49.0,40.0,27.10,SE,135,0.0,0.0,72,0.00,,,0.00,Rainwise IP-100,2013-07-14 12:00:00,
2013-07-14 06:05:00,49.0,40.0,27.10,SW,225,0.0,0.0,72,0.00,,,0.00,Rainwise IP-100,2013-07-14 12:05:00,
2013-07-14 06:10:00,49.0,40.0,27.11,WSW,247,1.0,3.0,70,0.00,,,0.00,Rainwise IP-100,2013-07-14 12:10:00,
2013-07-14 06:15:00,49.0,40.0,27.11,WSW,247,0.0,1.0,70,0.00,,,0.00,Rainwise IP-100,2013-07-14 12:15:00,
2013-07-14 06:20:00,49.0,40.0,27.11,WSW,247,0.0,0.0,71,0.00,,,0.00,Rainwise IP-100,2013-07-14 12:20:00,
2013-07-14 06:25:00,48.0,40.0,27.11,WSW,247,0.0,1.0,73,0.00,,,0.00,Rainwise IP-100,2013-07-14 12:25:00,
2013-07-14 06:30:00,49.0,41.0,27.11,WSW,247,0.0,0.0,73,0.00,,,0.00,Rainwise IP-100,2013-07-14 12:30:00,
2013-07-14 06:35:00,49.0,41.0,27.11,SSE,157,3.0,4.0,73,0.00,,,0.00,Rainwise IP-100,2013-07-14 12:35:00,
2013-07-14 06:40:00,49.0,40.0,27.11,South,180,3.0,5.0,71,0.00,,,0.00,Rainwise IP-100,2013-07-14 12:40:00,
2013-07-14 06:45:00,50.0,40.0,27.11,South,180,1.0,4.0,69,0.00,,,0.00,Rainwise IP-100,2013-07-14 12:45:00,
2013-07-14 06:50:00,51.0,40.0,27.11,SSE,157,1.0,5.0,67,0.00,,,0.00,Rainwise IP-100,2013-07-14 12:50:00,
2013-07-14 06:55:00,51.0,40.0,27.11,SSE,157,0.0,1.0,67,0.00,,,0.00,Rainwise IP-100,2013-07-14 12:55:00,
2013-07-14 07:00:00,52.0,40.0,27.11,SSE,157,0.0,2.0,64,0.00,,,0.00,Rainwise IP-100,2013-07-14 13:00:00,
2013-07-14 07:05:00,53.0,40.0,27.11,SSE,157,0.0,0.0,63,0.00,,,0.00,Rainwise IP-100,2013-07-14 13:05:00,
2013-07-14 07:10:00,54.0,40.0,27.11,SSE,157,2.0,2.0,60,0.00,,,0.00,Rainwise IP-100,2013-07-14 13:10:00,
2013-07-14 07:15:00,54.0,40.0,27.11,SSE,157,0.0,3.0,59,0.00,,,0.00,Rainwise IP-100,2013-07-14 13:15:00,
2013-07-14 07:20:00,55.0,40.0,27.10,SSE,157,2.0,4.0,56,0.00,,,0.00,Rainwise IP-100,2013-07-14 13:20:00,
2013-07-14 07:25:00,56.0,40.0,27.10,SSE,157,2.0,2.0,56,0.00,,,0.00,Rainwise IP-100,2013-07-14 13:25:00,
2013-07-14 07:30:00,57.0,40.0,27.09,SSE,157,3.0,4.0,53,0.00,,,0.00,Rainwise IP-100,2013-07-14 13:30:00,
2013-07-14 07:35:00,57.0,39.0,27.09,SSE,157,0.0,3.0,50,0.00,,,0.00,Rainwise IP-100,2013-07-14 13:35:00,
2013-07-14 07:40:00,59.0,40.0,27.08,SSE,157,0.0,0.0,49,0.00,,,0.00,Rainwise IP-100,2013-07-14 13:40:00,
2013-07-14 07:45:00,58.0,39.0,27.08,SSE,157,0.0,0.0,49,0.00,,,0.00,Rainwise IP-100,2013-07-14 13:45:00,
2013-07-14 07:50:00,59.0,40.0,27.08,West,270,6.0,6.0,49,0.00,,,0.00,Rainwise IP-100,2013-07-14 13:50:00,
2013-07-14 07:55:00,58.0,39.0,27.08,WNW,292,5.0,7.0,49,0.00,,,0.00,Rainwise IP-100,2013-07-14 13:55:00,
2013-07-14 08:00:00,59.0,40.0,27.09,SSE,157,2.0,6.0,49,0.00,,,0.00,Rainwise IP-100,2013-07-14 14:00:00,
2013-07-14 08:05:00,59.0,39.0,27.09,West,270,4.0,5.0,48,0.00,,,0.00,Rainwise IP-100,2013-07-14 14:05:00,
2013-07-14 08:10:00,59.0,38.0,27.10,WNW,292,3.0,6.0,46,0.00,,,0.00,Rainwise IP-100,2013-07-14 14:10:00,
2013-07-14 08:15:00,59.0,40.0,27.10,WNW,292,3.0,6.0,49,0.00,,,0.00,Rainwise IP-100,2013-07-14 14:15:00,
2013-07-14 08:20:00,59.0,39.0,27.10,WNW,292,2.0,5.0,47,0.00,,,0.00,Rainwise IP-100,2013-07-14 14:20:00,
2013-07-14 08:25:00,60.0,39.0,27.10,NNE,22,3.0,4.0,46,0.00,,,0.00,Rainwise IP-100,2013-07-14 14:25:00,
2013-07-14 08:30:00,61.0,39.0,27.09,North,360,4.0,4.0,44,0.00,,,0.00,Rainwise IP-100,2013-07-14 14:30:00,
2013-07-14 08:35:00,62.0,39.0,27.09,NW,315,0.0,6.0,42,0.00,,,0.00,Rainwise IP-100,2013-07-14 14:35:00,
2013-07-14 08:40:00,64.0,40.0,27.07,NW,315,0.0,4.0,41,0.00,,,0.00,Rainwise IP-100,2013-07-14 14:40:00,
2013-07-14 08:45:00,64.0,40.0,27.07,NNE,22,3.0,5.0,41,0.00,,,0.00,Rainwise IP-100,2013-07-14 14:45:00,
2013-07-14 08:50:00,65.0,39.0,27.07,SE,135,1.0,4.0,39,0.00,,,0.00,Rainwise IP-100,2013-07-14 14:50:00,
2013-07-14 08:55:00,66.0,39.0,27.07,SSE,157,5.0,5.0,37,0.00,,,0.00,Rainwise IP-100,2013-07-14 14:55:00,
2013-07-14 09:00:00,66.0,39.0,27.07,South,180,4.0,6.0,37,0.00,,,0.00,Rainwise IP-100,2013-07-14 15:00:00,
2013-07-14 09:05:00,66.0,39.0,27.07,SW,225,0.0,4.0,37,0.00,,,0.00,Rainwise IP-100,2013-07-14 15:05:00,
2013-07-14 09:10:00,66.0,39.0,27.09,SW,225,0.0,2.0,38,0.00,,,0.00,Rainwise IP-100,2013-07-14 15:10:00,
2013-07-14 09:15:00,65.0,39.0,27.09,WNW,292,3.0,3.0,38,0.00,,,0.00,Rainwise IP-100,2013-07-14 15:15:00,
2013-07-14 09:20:00,64.0,40.0,27.09,West,270,2.0,6.0,41,0.00,,,0.00,Rainwise IP-100,2013-07-14 15:20:00,
2013-07-14 09:25:00,63.0,39.0,27.09,North,360,3.0,4.0,42,0.00,,,0.00,Rainwise IP-100,2013-07-14 15:25:00,
2013-07-14 09:30:00,64.0,40.0,27.08,NW,315,3.0,4.0,41,0.00,,,0.00,Rainwise IP-100,2013-07-14 15:30:00,
2013-07-14 09:35:00,64.0,39.0,27.08,NW,315,3.0,5.0,40,0.00,,,0.00,Rainwise IP-100,2013-07-14 15:35:00,
2013-07-14 09:40:00,65.0,40.0,27.08,NW,315,5.0,5.0,40,0.00,,,0.00,Rainwise IP-100,2013-07-14 15:40:00,
2013-07-14 09:45:00,66.0,39.0,27.08,North,360,0.0,6.0,38,0.00,,,0.00,Rainwise IP-100,2013-07-14 15:45:00,
2013-07-14 09:50:00,67.0,40.0,27.08,NE,45,2.0,4.0,38,0.00,,,0.00,Rainwise IP-100,2013-07-14 15:50:00,
2013-07-14 09:55:00,67.0,40.0,27.08,NW,315,3.0,4.0,37,0.00,,,0.00,Rainwise IP-100,2013-07-14 15:55:00,
2013-07-14 10:00:00,68.0,41.0,27.07,NNW,337,1.0,6.0,37,0.00,,,0.00,Rainwise IP-100,2013-07-14 16:00:00,
2013-07-14 10:05:00,68.0,39.0,27.07,ESE,112,0.0,9.0,35,0.00,,,0.00,Rainwise IP-100,2013-07-14 16:05:00,
2013-07-14 10:10:00,68.0,38.0,27.07,SSW,202,1.0,7.0,34,0.00,,,0.00,Rainwise IP-100,2013-07-14 16:10:00,
2013-07-14 10:15:00,67.0,38.0,27.07,SW,225,3.0,8.0,35,0.00,,,0.00,Rainwise IP-100,2013-07-14 16:15:00,
2013-07-14 10:20:00,68.0,38.0,27.07,East,90,6.0,6.0,34,0.00,,,0.00,Rainwise IP-100,2013-07-14 16:20:00,
2013-07-14 10:25:00,68.0,38.0,27.07,NE,45,1.0,6.0,34,0.00,,,0.00,Rainwise IP-100,2013-07-14 16:25:00,
2013-07-14 10:30:00,69.0,39.0,27.06,South,180,3.0,4.0,34,0.00,,,0.00,Rainwise IP-100,2013-07-14 16:30:00,
2013-07-14 10:35:00,70.0,40.0,27.06,WSW,247,1.0,5.0,34,0.00,,,0.00,Rainwise IP-100,2013-07-14 16:35:00,
2013-07-14 10:40:00,71.0,39.0,27.05,SSE,157,3.0,7.0,31,0.00,,,0.00,Rainwise IP-100,2013-07-14 16:40:00,
2013-07-14 10:45:00,71.0,39.0,27.05,ESE,112,1.0,5.0,32,0.00,,,0.00,Rainwise IP-100,2013-07-14 16:45:00,
2013-07-14 10:50:00,72.0,39.0,27.03,ENE,67,4.0,7.0,31,0.00,,,0.00,Rainwise IP-100,2013-07-14 16:50:00,
2013-07-14 10:55:00,71.0,39.0,27.03,South,180,3.0,7.0,32,0.00,,,0.00,Rainwise IP-100,2013-07-14 16:55:00,
2013-07-14 11:00:00,72.0,40.0,27.03,SSW,202,4.0,4.0,32,0.00,,,0.00,Rainwise IP-100,2013-07-14 17:00:00,
2013-07-14 11:05:00,72.0,39.0,27.03,SSW,202,1.0,4.0,30,0.00,,,0.00,Rainwise IP-100,2013-07-14 17:05:00,
2013-07-14 11:10:00,73.0,39.0,27.03,SW,225,0.0,3.0,29,0.00,,,0.00,Rainwise IP-100,2013-07-14 17:10:00,
2013-07-14 11:15:00,72.0,39.0,27.03,WNW,292,4.0,6.0,31,0.00,,,0.00,Rainwise IP-100,2013-07-14 17:15:00,
2013-07-14 11:20:00,73.0,40.0,27.03,SSW,202,4.0,6.0,30,0.00,,,0.00,Rainwise IP-100,2013-07-14 17:20:00,
2013-07-14 11:25:00,73.0,40.0,27.03,West,270,0.0,6.0,30,0.00,,,0.00,Rainwise IP-100,2013-07-14 17:25:00,
2013-07-14 11:30:00,73.0,40.0,27.03,West,270,8.0,9.0,30,0.00,,,0.00,Rainwise IP-100,2013-07-14 17:30:00,
2013-07-14 11:35:00,72.0,40.0,27.03,WNW,292,1.0,9.0,32,0.00,,,0.00,Rainwise IP-100,2013-07-14 17:35:00,
2013-07-14 11:40:00,73.0,40.0,27.03,WSW,247,4.0,7.0,31,0.00,,,0.00,Rainwise IP-100,2013-07-14 17:40:00,
2013-07-14 11:45:00,74.0,41.0,27.03,WNW,292,1.0,5.0,31,0.00,,,0.00,Rainwise IP-100,2013-07-14 17:45:00,
2013-07-14 11:50:00,76.0,41.0,27.01,SSW,202,1.0,5.0,29,0.00,,,0.00,Rainwise IP-100,2013-07-14 17:50:00,
2013-07-14 11:55:00,76.0,41.0,27.01,South,180,5.0,6.0,29,0.00,,,0.00,Rainwise IP-100,2013-07-14 17:55:00,
2013-07-14 12:00:00,75.0,41.0,27.01,SE,135,4.0,7.0,29,0.00,,,0.00,Rainwise IP-100,2013-07-14 18:00:00,
2013-07-14 12:05:00,76.0,41.0,27.01,NW,315,5.0,6.0,29,0.00,,,0.00,Rainwise IP-100,2013-07-14 18:05:00,
2013-07-14 12:10:00,75.0,40.0,27.01,East,90,4.0,7.0,28,0.00,,,0.00,Rainwise IP-100,2013-07-14 18:10:00,
2013-07-14 12:15:00,76.0,40.0,27.01,NE,45,3.0,6.0,28,0.00,,,0.00,Rainwise IP-100,2013-07-14 18:15:00,
2013-07-14 12:20:00,77.0,40.0,26.99,NW,315,3.0,4.0,27,0.00,,,0.00,Rainwise IP-100,2013-07-14 18:20:00,
2013-07-14 12:25:00,77.0,41.0,26.99,SW,225,1.0,7.0,28,0.00,,,0.00,Rainwise IP-100,2013-07-14 18:25:00,
2013-07-14 12:30:00,78.0,40.0,26.99,NNW,337,6.0,7.0,26,0.00,,,0.00,Rainwise IP-100,2013-07-14 18:30:00,
2013-07-14 12:35:00,78.0,40.0,26.99,North,360,4.0,7.0,26,0.00,,,0.00,Rainwise IP-100,2013-07-14 18:35:00,
2013-07-14 12:40:00,79.0,39.0,26.98,NNW,337,6.0,7.0,24,0.00,,,0.00,Rainwise IP-100,2013-07-14 18:40:00,
2013-07-14 12:45:00,79.0,39.0,26.98,NNW,337,4.0,7.0,24,0.00,,,0.00,Rainwise IP-100,2013-07-14 18:45:00,
2013-07-14 12:50:00,79.0,37.0,26.98,North,360,2.0,7.0,22,0.00,,,0.00,Rainwise IP-100,2013-07-14 18:50:00,
2013-07-14 12:55:00,79.0,36.0,26.98,WNW,292,6.0,7.0,21,0.00,,,0.00,Rainwise IP-100,2013-07-14 18:55:00,
2013-07-14 13:00:00,79.0,37.0,26.98,North,360,6.0,10.0,22,0.00,,,0.00,Rainwise IP-100,2013-07-14 19:00:00,
2013-07-14 13:05:00,79.0,35.0,26.98,NW,315,2.0,7.0,20,0.00,,,0.00,Rainwise IP-100,2013-07-14 19:05:00,
2013-07-14 13:10:00,79.0,35.0,26.97,WNW,292,7.0,9.0,20,0.00,,,0.00,Rainwise IP-100,2013-07-14 19:10:00,
2013-07-14 13:15:00,79.0,37.0,26.97,NNW,337,4.0,9.0,22,0.00,,,0.00,Rainwise IP-100,2013-07-14 19:15:00,
2013-07-14 13:20:00,79.0,35.0,26.97,West,270,0.0,8.0,20,0.00,,,0.00,Rainwise IP-100,2013-07-14 19:20:00,
2013-07-14 13:25:00,80.0,36.0,26.97,NNW,337,4.0,9.0,20,0.00,,,0.00,Rainwise IP-100,2013-07-14 19:25:00,
2013-07-14 13:30:00,80.0,35.0,26.96,North,360,3.0,10.0,19,0.00,,,0.00,Rainwise IP-100,2013-07-14 19:30:00,
2013-07-14 13:35:00,80.0,36.0,26.96,SSE,157,0.0,9.0,20,0.00,,,0.00,Rainwise IP-100,2013-07-14 19:35:00,
2013-07-14 13:40:00,81.0,36.0,26.95,NNW,337,7.0,8.0,20,0.00,,,0.00,Rainwise IP-100,2013-07-14 19:40:00,
2013-07-14 13:45:00,81.0,36.0,26.95,NW,315,0.0,9.0,20,0.00,,,0.00,Rainwise IP-100,2013-07-14 19:45:00,
2013-07-14 13:50:00,81.0,35.0,26.95,SSW,202,3.0,7.0,19,0.00,,,0.00,Rainwise IP-100,2013-07-14 19:50:00,
2013-07-14 13:55:00,81.0,35.0,26.95,WNW,292,4.0,10.0,19,0.00,,,0.00,Rainwise IP-100,2013-07-14 19:55:00,
2013-07-14 14:00:00,81.0,36.0,26.95,NNW,337,4.0,9.0,20,0.00,,,0.00,Rainwise IP-100,2013-07-14 20:00:00,
2013-07-14 14:04:00,82.0,36.0,26.95,NNW,337,4.0,9.0,19,0.00,,,0.00,Rainwise IP-100,2013-07-14 20:04:00,
2013-07-14 14:09:00,82.0,36.0,26.95,West,270,6.0,8.0,19,0.00,,,0.00,Rainwise IP-100,2013-07-14 20:09:00,
2013-07-14 14:14:00,81.0,35.0,26.94,NW,315,3.0,9.0,19,0.00,,,0.00,Rainwise IP-100,2013-07-14 20:14:00,
2013-07-14 14:19:00,81.0,33.0,26.94,NE,45,4.0,8.0,18,0.00,,,0.00,Rainwise IP-100,2013-07-14 20:19:00,
2013-07-14 14:24:00,82.0,35.0,26.94,North,360,4.0,8.0,18,0.00,,,0.00,Rainwise IP-100,2013-07-14 20:24:00,
2013-07-14 14:29:00,82.0,35.0,26.94,NE,45,4.0,7.0,18,0.00,,,0.00,Rainwise IP-100,2013-07-14 20:29:00,
2013-07-14 14:34:00,83.0,36.0,26.93,North,360,6.0,8.0,18,0.00,,,0.00,Rainwise IP-100,2013-07-14 20:34:00,
2013-07-14 14:39:00,83.0,37.0,26.93,North,360,6.0,7.0,19,0.00,,,0.00,Rainwise IP-100,2013-07-14 20:39:00,
2013-07-14 14:44:00,84.0,36.0,26.94,NE,45,6.0,6.0,18,0.00,,,0.00,Rainwise IP-100,2013-07-14 20:44:00,
2013-07-14 14:49:00,84.0,36.0,26.94,NE,45,2.0,7.0,18,0.00,,,0.00,Rainwise IP-100,2013-07-14 20:49:00,
2013-07-14 14:54:00,83.0,33.0,26.93,SE,135,5.0,6.0,17,0.00,,,0.00,Rainwise IP-100,2013-07-14 20:54:00,
2013-07-14 14:59:00,84.0,37.0,26.93,WNW,292,6.0,6.0,19,0.00,,,0.00,Rainwise IP-100,2013-07-14 20:59:00,
2013-07-14 15:04:00,84.0,36.0,26.92,WNW,292,1.0,8.0,18,0.00,,,0.00,Rainwise IP-100,2013-07-14 21:04:00,
2013-07-14 15:09:00,85.0,36.0,26.92,NW,315,3.0,7.0,17,0.00,,,0.00,Rainwise IP-100,2013-07-14 21:09:00,
2013-07-14 15:14:00,85.0,37.0,26.92,North,360,6.0,9.0,18,0.00,,,0.00,Rainwise IP-100,2013-07-14 21:14:00,
2013-07-14 15:19:00,85.0,33.0,26.92,NNW,337,3.0,9.0,16,0.00,,,0.00,Rainwise IP-100,2013-07-14 21:19:00,
2013-07-14 15:24:00,85.0,36.0,26.91,NNW,337,6.0,8.0,17,0.00,,,0.00,Rainwise IP-100,2013-07-14 21:24:00,
2013-07-14 15:29:00,85.0,33.0,26.91,West,270,7.0,7.0,16,0.00,,,0.00,Rainwise IP-100,2013-07-14 21:29:00,
2013-07-14 15:34:00,85.0,36.0,26.92,NE,45,3.0,9.0,17,0.00,,,0.00,Rainwise IP-100,2013-07-14 21:34:00,
2013-07-14 15:39:00,86.0,35.0,26.92,North,360,3.0,9.0,16,0.00,,,0.00,Rainwise IP-100,2013-07-14 21:39:00,
2013-07-14 15:44:00,86.0,35.0,26.91,NW,315,8.0,9.0,16,0.00,,,0.00,Rainwise IP-100,2013-07-14 21:44:00,
2013-07-14 15:49:00,85.0,33.0,26.91,NW,315,0.0,9.0,16,0.00,,,0.00,Rainwise IP-100,2013-07-14 21:49:00,
2013-07-14 15:54:00,85.0,33.0,26.90,NNW,337,9.0,9.0,16,0.00,,,0.00,Rainwise IP-100,2013-07-14 21:54:00,
2013-07-14 15:59:00,86.0,35.0,26.90,West,270,2.0,10.0,16,0.00,,,0.00,Rainwise IP-100,2013-07-14 21:59:00,
2013-07-14 16:04:00,85.0,33.0,26.89,WNW,292,11.0,11.0,16,0.00,,,0.00,Rainwise IP-100,2013-07-14 22:04:00,
2013-07-14 16:09:00,86.0,33.0,26.89,NNW,337,1.0,11.0,15,0.00,,,0.00,Rainwise IP-100,2013-07-14 22:09:00,
2013-07-14 16:14:00,86.0,35.0,26.89,NE,45,3.0,10.0,16,0.00,,,0.00,Rainwise IP-100,2013-07-14 22:14:00,
2013-07-14 16:19:00,86.0,32.0,26.89,NE,45,2.0,7.0,14,0.00,,,0.00,Rainwise IP-100,2013-07-14 22:19:00,
2013-07-14 16:24:00,87.0,32.0,26.88,NNE,22,4.0,9.0,14,0.00,,,0.00,Rainwise IP-100,2013-07-14 22:24:00,
2013-07-14 16:29:00,87.0,31.0,26.88,NNW,337,6.0,12.0,13,0.00,,,0.00,Rainwise IP-100,2013-07-14 22:29:00,
2013-07-14 16:34:00,87.0,33.0,26.88,NW,315,9.0,10.0,15,0.00,,,0.00,Rainwise IP-100,2013-07-14 22:34:00,
2013-07-14 16:39:00,87.0,32.0,26.88,North,360,6.0,11.0,14,0.00,,,0.00,Rainwise IP-100,2013-07-14 22:39:00,
2013-07-14 16:44:00,88.0,33.0,26.87,WSW,247,10.0,10.0,14,0.00,,,0.00,Rainwise IP-100,2013-07-14 22:44:00,
2013-07-14 16:49:00,87.0,28.0,26.87,NNW,337,3.0,12.0,12,0.00,,,0.00,Rainwise IP-100,2013-07-14 22:49:00,
2013-07-14 16:54:00,87.0,31.0,26.88,NE,45,5.0,10.0,13,0.00,,,0.00,Rainwise IP-100,2013-07-14 22:54:00,
2013-07-14 16:59:00,88.0,31.0,26.88,West,270,5.0,9.0,13,0.00,,,0.00,Rainwise IP-100,2013-07-14 22:59:00,
2013-07-14 17:04:00,88.0,24.0,26.88,SE,135,5.0,9.0,10,0.00,,,0.00,Rainwise IP-100,2013-07-14 23:04:00,
2013-07-14 17:09:00,88.0,24.0,26.88,NNW,337,4.0,12.0,10,0.00,,,0.00,Rainwise IP-100,2013-07-14 23:09:00,
2013-07-14 17:14:00,87.0,31.0,26.87,WNW,292,9.0,15.0,13,0.00,,,0.00,Rainwise IP-100,2013-07-14 23:14:00,
2013-07-14 17:19:00,87.0,23.0,26.87,NNW,337,6.0,13.0,9,0.00,,,0.00,Rainwise IP-100,2013-07-14 23:19:00,
2013-07-14 17:24:00,88.0,23.0,26.87,SSW,202,2.0,13.0,9,0.00,,,0.00,Rainwise IP-100,2013-07-14 23:24:00,
2013-07-14 17:29:00,88.0,23.0,26.87,WSW,247,2.0,16.0,9,0.00,,,0.00,Rainwise IP-100,2013-07-14 23:29:00,
2013-07-14 17:34:00,88.0,23.0,26.88,SSW,202,0.0,13.0,9,0.00,,,0.00,Rainwise IP-100,2013-07-14 23:34:00,
2013-07-14 17:39:00,88.0,23.0,26.88,West,270,4.0,13.0,9,0.00,,,0.00,Rainwise IP-100,2013-07-14 23:39:00,
2013-07-14 17:44:00,88.0,23.0,26.87,South,180,7.0,10.0,9,0.00,,,0.00,Rainwise IP-100,2013-07-14 23:44:00,
2013-07-14 17:49:00,88.0,23.0,26.87,SSW,202,6.0,17.0,9,0.00,,,0.00,Rainwise IP-100,2013-07-14 23:49:00,
2013-07-14 17:54:00,87.0,26.0,26.87,SSW,202,2.0,12.0,11,0.00,,,0.00,Rainwise IP-100,2013-07-14 23:54:00,
2013-07-14 17:59:00,87.0,26.0,26.87,South,180,3.0,15.0,11,0.00,,,0.00,Rainwise IP-100,2013-07-14 23:59:00,
2013-07-14 18:04:00,88.0,28.0,26.85,South,180,1.0,10.0,11,0.00,,,0.00,Rainwise IP-100,2013-07-15 00:04:00,
2013-07-14 18:09:00,88.0,28.0,26.85,West,270,10.0,10.0,11,0.00,,,0.00,Rainwise IP-100,2013-07-15 00:09:00,
2013-07-14 18:14:00,87.0,26.0,26.86,ESE,112,2.0,17.0,11,0.00,,,0.00,Rainwise IP-100,2013-07-15 00:14:00,
2013-07-14 18:19:00,87.0,26.0,26.86,West,270,7.0,13.0,11,0.00,,,0.00,Rainwise IP-100,2013-07-15 00:19:00,
2013-07-14 18:24:00,87.0,26.0,26.85,SSE,157,3.0,12.0,11,0.00,,,0.00,Rainwise IP-100,2013-07-15 00:24:00,
2013-07-14 18:29:00,87.0,26.0,26.85,WSW,247,6.0,14.0,11,0.00,,,0.00,Rainwise IP-100,2013-07-15 00:29:00,
2013-07-14 18:34:00,87.0,28.0,26.85,WNW,292,6.0,10.0,12,0.00,,,0.00,Rainwise IP-100,2013-07-15 00:34:00,
2013-07-14 18:39:00,88.0,29.0,26.85,West,270,9.0,10.0,12,0.00,,,0.00,Rainwise IP-100,2013-07-15 00:39:00,
2013-07-14 18:44:00,87.0,28.0,26.85,NNW,337,6.0,15.0,12,0.00,,,0.00,Rainwise IP-100,2013-07-15 00:44:00,
2013-07-14 18:49:00,87.0,28.0,26.85,NW,315,7.0,14.0,12,0.00,,,0.00,Rainwise IP-100,2013-07-15 00:49:00,
2013-07-14 18:54:00,87.0,31.0,26.84,NW,315,11.0,13.0,13,0.00,,,0.00,Rainwise IP-100,2013-07-15 00:54:00,
2013-07-14 18:59:00,87.0,31.0,26.84,SSW,202,3.0,13.0,13,0.00,,,0.00,Rainwise IP-100,2013-07-15 00:59:00,
2013-07-14 19:04:00,87.0,31.0,26.84,WNW,292,6.0,9.0,13,0.00,,,0.00,Rainwise IP-100,2013-07-15 01:04:00,
2013-07-14 19:09:00,87.0,31.0,26.84,West,270,5.0,11.0,13,0.00,,,0.00,Rainwise IP-100,2013-07-15 01:09:00,
2013-07-14 19:14:00,87.0,31.0,26.83,WNW,292,5.0,8.0,13,0.00,,,0.00,Rainwise IP-100,2013-07-15 01:14:00,
2013-07-14 19:19:00,87.0,31.0,26.83,WSW,247,5.0,12.0,13,0.00,,,0.00,Rainwise IP-100,2013-07-15 01:19:00,
2013-07-14 19:24:00,87.0,31.0,26.83,WNW,292,7.0,11.0,13,0.00,,,0.00,Rainwise IP-100,2013-07-15 01:24:00,
2013-07-14 19:29:00,87.0,31.0,26.83,WNW,292,3.0,9.0,13,0.00,,,0.00,Rainwise IP-100,2013-07-15 01:29:00,
2013-07-14 19:34:00,87.0,31.0,26.83,SW,225,0.0,9.0,13,0.00,,,0.00,Rainwise IP-100,2013-07-15 01:34:00,
2013-07-14 19:40:00,87.0,31.0,26.83,West,270,6.0,6.0,13,0.00,,,0.00,Rainwise IP-100,2013-07-15 01:40:00,
2013-07-14 19:45:00,86.0,32.0,26.84,WSW,247,3.0,8.0,14,0.00,,,0.00,Rainwise IP-100,2013-07-15 01:45:00,
2013-07-14 19:50:00,86.0,33.0,26.84,West,270,0.0,7.0,15,0.00,,,0.00,Rainwise IP-100,2013-07-15 01:50:00,
2013-07-14 19:55:00,86.0,33.0,26.83,WNW,292,4.0,8.0,15,0.00,,,0.00,Rainwise IP-100,2013-07-15 01:55:00,
2013-07-14 20:00:00,86.0,33.0,26.83,NW,315,5.0,9.0,15,0.00,,,0.00,Rainwise IP-100,2013-07-15 02:00:00,
2013-07-14 20:04:00,86.0,35.0,26.83,WSW,247,4.0,7.0,16,0.00,,,0.00,Rainwise IP-100,2013-07-15 02:04:00,
2013-07-14 20:09:00,86.0,35.0,26.83,WSW,247,2.0,7.0,16,0.00,,,0.00,Rainwise IP-100,2013-07-15 02:09:00,
2013-07-14 20:14:00,86.0,35.0,26.83,NW,315,4.0,4.0,16,0.00,,,0.00,Rainwise IP-100,2013-07-15 02:14:00,
2013-07-14 20:19:00,85.0,33.0,26.83,WNW,292,8.0,8.0,16,0.00,,,0.00,Rainwise IP-100,2013-07-15 02:19:00,
2013-07-14 20:24:00,85.0,33.0,26.84,West,270,2.0,8.0,16,0.00,,,0.00,Rainwise IP-100,2013-07-15 02:24:00,
2013-07-14 20:30:00,85.0,36.0,26.84,West,270,0.0,6.0,17,0.00,,,0.00,Rainwise IP-100,2013-07-15 02:30:00,
2013-07-14 20:35:00,84.0,35.0,26.83,West,270,0.0,6.0,17,0.00,,,0.00,Rainwise IP-100,2013-07-15 02:35:00,
2013-07-14 20:40:00,84.0,36.0,26.83,West,270,0.0,3.0,18,0.00,,,0.00,Rainwise IP-100,2013-07-15 02:40:00,
2013-07-14 20:45:00,84.0,37.0,26.83,West,270,0.0,0.0,19,0.00,,,0.00,Rainwise IP-100,2013-07-15 02:45:00,
2013-07-14 20:50:00,84.0,37.0,26.83,West,270,0.0,0.0,19,0.00,,,0.00,Rainwise IP-100,2013-07-15 02:50:00,
2013-07-14 20:55:00,83.0,38.0,26.83,West,270,0.0,3.0,20,0.00,,,0.00,Rainwise IP-100,2013-07-15 02:55:00,
2013-07-14 21:00:00,81.0,39.0,26.83,West,270,0.0,4.0,22,0.00,,,0.00,Rainwise IP-100,2013-07-15 03:00:00,
2013-07-14 21:05:00,80.0,38.0,26.84,West,270,2.0,5.0,22,0.00,,,0.00,Rainwise IP-100,2013-07-15 03:05:00,
2013-07-14 21:10:00,79.0,38.0,26.84,West,270,0.0,4.0,23,0.00,,,0.00,Rainwise IP-100,2013-07-15 03:10:00,
2013-07-14 21:15:00,78.0,38.0,26.85,West,270,0.0,3.0,24,0.00,,,0.00,Rainwise IP-100,2013-07-15 03:15:00,
2013-07-14 21:20:00,78.0,38.0,26.85,West,270,0.0,1.0,24,0.00,,,0.00,Rainwise IP-100,2013-07-15 03:20:00,
2013-07-14 21:25:00,77.0,39.0,26.86,West,270,0.0,0.0,25,0.00,,,0.00,Rainwise IP-100,2013-07-15 03:25:00,
2013-07-14 21:30:00,75.0,39.0,26.86,West,270,0.0,0.0,27,0.00,,,0.00,Rainwise IP-100,2013-07-15 03:30:00,
2013-07-14 21:35:00,74.0,39.0,26.87,West,270,0.0,0.0,28,0.00,,,0.00,Rainwise IP-100,2013-07-15 03:35:00,
2013-07-14 21:40:00,74.0,40.0,26.87,West,270,0.0,0.0,29,0.00,,,0.00,Rainwise IP-100,2013-07-15 03:40:00,
2013-07-14 21:45:00,73.0,40.0,26.87,West,270,0.0,0.0,30,0.00,,,0.00,Rainwise IP-100,2013-07-15 03:45:00,
2013-07-14 21:50:00,72.0,40.0,26.87,NNE,22,4.0,0.0,32,0.00,,,0.00,Rainwise IP-100,2013-07-15 03:50:00,
2013-07-14 21:55:00,72.0,41.0,26.88,NNE,22,0.0,4.0,33,0.00,,,0.00,Rainwise IP-100,2013-07-15 03:55:00,
2013-07-14 22:00:00,72.0,40.0,26.88,NNE,22,0.0,0.0,32,0.00,,,0.00,Rainwise IP-100,2013-07-15 04:00:00,
2013-07-14 22:01:00,72.0,40.0,26.89,NNE,22,0.0,0.0,32,0.00,,,0.00,Rainwise IP-100,2013-07-15 04:01:00,
2013-07-14 22:06:00,71.0,39.0,26.89,NNE,22,0.0,0.0,32,0.00,,,0.00,Rainwise IP-100,2013-07-15 04:06:00,
2013-07-14 22:11:00,70.0,40.0,26.91,NNE,22,0.0,0.0,34,0.00,,,0.00,Rainwise IP-100,2013-07-15 04:11:00,
2013-07-14 22:16:00,70.0,42.0,26.91,NNE,22,0.0,0.0,36,0.00,,,0.00,Rainwise IP-100,2013-07-15 04:16:00,
2013-07-14 22:21:00,69.0,41.0,26.91,NNE,22,0.0,0.0,36,0.00,,,0.00,Rainwise IP-100,2013-07-15 04:21:00,
2013-07-14 22:26:00,69.0,41.0,26.91,NNE,22,0.0,0.0,37,0.00,,,0.00,Rainwise IP-100,2013-07-15 04:26:00,
2013-07-14 22:31:00,69.0,41.0,26.90,NNE,22,0.0,0.0,37,0.00,,,0.00,Rainwise IP-100,2013-07-15 04:31:00,
2013-07-14 22:36:00,68.0,41.0,26.90,NNE,22,0.0,0.0,37,0.00,,,0.00,Rainwise IP-100,2013-07-15 04:36:00,
2013-07-14 22:41:00,68.0,41.0,26.91,SSE,157,2.0,3.0,38,0.00,,,0.00,Rainwise IP-100,2013-07-15 04:41:00,
2013-07-14 22:46:00,68.0,42.0,26.91,SSE,157,2.0,4.0,39,0.00,,,0.00,Rainwise IP-100,2013-07-15 04:46:00,
2013-07-14 22:51:00,68.0,41.0,26.91,SSE,157,0.0,3.0,37,0.00,,,0.00,Rainwise IP-100,2013-07-15 04:51:00,
2013-07-14 22:56:00,67.0,40.0,26.91,SSE,157,2.0,2.0,37,0.00,,,0.00,Rainwise IP-100,2013-07-15 04:56:00,
2013-07-14 23:01:00,67.0,38.0,26.91,SSE,157,0.0,3.0,35,0.00,,,0.00,Rainwise IP-100,2013-07-15 05:01:00,
2013-07-14 23:06:00,67.0,40.0,26.91,SSE,157,0.0,0.0,37,0.00,,,0.00,Rainwise IP-100,2013-07-15 05:06:00,
2013-07-14 23:11:00,66.0,39.0,26.92,SSE,157,0.0,0.0,38,0.00,,,0.00,Rainwise IP-100,2013-07-15 05:11:00,
2013-07-14 23:16:00,66.0,40.0,26.92,SSE,157,0.0,0.0,39,0.00,,,0.00,Rainwise IP-100,2013-07-15 05:16:00,
2013-07-14 23:21:00,66.0,40.0,26.91,South,180,0.0,3.0,39,0.00,,,0.00,Rainwise IP-100,2013-07-15 05:21:00,
2013-07-14 23:26:00,65.0,40.0,26.91,South,180,0.0,0.0,40,0.00,,,0.00,Rainwise IP-100,2013-07-15 05:26:00,
2013-07-14 23:31:00,65.0,40.0,26.91,South,180,0.0,0.0,40,0.00,,,0.00,Rainwise IP-100,2013-07-15 05:31:00,
2013-07-14 23:36:00,64.0,40.0,26.91,South,180,0.0,0.0,41,0.00,,,0.00,Rainwise IP-100,2013-07-15 05:36:00,
2013-07-14 23:41:00,63.0,39.0,26.93,South,180,0.0,0.0,42,0.00,,,0.00,Rainwise IP-100,2013-07-15 05:41:00,
2013-07-14 23:46:00,63.0,39.0,26.93,SSW,202,2.0,4.0,41,0.00,,,0.00,Rainwise IP-100,2013-07-15 05:46:00,
2013-07-14 23:51:00,64.0,40.0,26.91,SSW,202,0.0,3.0,41,0.00,,,0.00,Rainwise IP-100,2013-07-15 05:51:00,
2013-07-14 23:56:00,63.0,39.0,26.91,SSW,202,0.0,0.0,42,0.00,,,0.00,Rainwise IP-100,2013-07-15 05:56:00,